Weather History for KIJX - July, 2013

Change the Weather History Date:

Monday, July 1, 2013

  Actual Average (KSPI) Record (KSPI)
Temperature  
Mean Temperature 69 °F 76 °F  
Max Temperature 78 °F 86 °F 102 °F (1931)
Min Temperature 60 °F 65 °F 51 °F (1984)
Degree Days  
Heating Degree Days 0 0  
Month to date heating degree days 0  
Since 1 June heating degree days 15  
Since 1 July heating degree days 0  
Cooling Degree Days 4 11  
Month to date cooling degree days 11  
Year to date cooling degree days 355  
Since 1 June cooling degree days 251  
Growing Degree Days 19 (Base 50)    
Moisture  
Dew Point 52 °F    
Average Humidity 55    
Maximum Humidity 75    
Minimum Humidity 39    
Precipitation  
Precipitation 0.00 in 0.13 in 3.18 in (1993)
Month to date precipitation 0.13  
Year to date precipitation 18.60  
Snow  
Snow 0.00 in 0.00 in 0.00 in ()
Month to date snowfall 0.0  
Since 1 June snowfall 0.0  
Since 1 July snowfall 0.0  
Snow Depth -    
Sea Level Pressure  
Sea Level Pressure 30.00 in    
Wind  
Wind Speed 10 mph (North)    
Max Wind Speed 18 mph    
Max Gust Speed 25 mph    
Visibility 10 miles    
Events      
T = Trace of Precipitation, MM = Missing Value Source: NWS Daily Summary

Daily Weather History Graph

Daily Weather History Graph

Search for Another Location

Airport or City:

Trip Planner

Search our weather history database for the weather conditions in past years. The results will help you decide how hot, cold, wet, or windy it might be!

Date:

Astronomy

Jul. 01, 2013 Rise Set
Actual Time 5:36 AM CDT 8:32 PM CDT
Civil Twilight 5:04 AM CDT 9:05 PM CDT
Nautical Twilight 4:23 AM CDT 9:46 PM CDT
Astronomical Twilight 3:35 AM CDT 10:33 PM CDT
Moon 1:06 AM CDT (7/1) 2:48 PM CDT (7/1)
Length of Visible Light 16h 01m
Length of Day
14h 56m
Waning Crescent, 35% of the Moon is Illuminated
Jul 1
Waning Crescent
Jul 8
New
Jul 15
First Quarter
Jul 22
Full
Jul 29
Last Quarter

Hourly Weather History & Observations

Time (CDT) Temp. Dew Point Humidity Pressure Visibility Wind Dir Wind Speed Gust Speed Precip Events Conditions
12:15 AM 64.4 °F 56.3 °F 75% 29.98 in 10.0 mi North 6.9 mph - N/A   Clear
12:35 AM 64.6 °F 54.7 °F 70% 29.98 in 10.0 mi NNE 8.1 mph - N/A   Clear
12:55 AM 64.8 °F 52.3 °F 64% 29.98 in 10.0 mi North 9.2 mph - N/A   Clear
1:15 AM 62.6 °F 53.1 °F 71% 29.97 in 10.0 mi North 8.1 mph - N/A   Clear
1:35 AM 62.6 °F 52.3 °F 69% 29.97 in 10.0 mi North 8.1 mph - N/A   Clear
1:55 AM 62.8 °F 52.2 °F 68% 29.97 in 10.0 mi North 6.9 mph - N/A   Scattered Clouds
2:15 AM 62.6 °F 52.9 °F 70% 29.96 in 10.0 mi North 8.1 mph - N/A   Mostly Cloudy
2:35 AM 62.8 °F 54.0 °F 73% 29.96 in 10.0 mi North 8.1 mph - N/A   Overcast
2:55 AM 63.3 °F 52.7 °F 68% 29.96 in 10.0 mi North 9.2 mph - N/A   Overcast
3:15 AM 63.1 °F 52.7 °F 69% 29.96 in 10.0 mi North 8.1 mph - N/A   Overcast
3:35 AM 63.0 °F 52.2 °F 68% 29.96 in 10.0 mi North 9.2 mph - N/A   Mostly Cloudy
3:55 AM 63.5 °F 51.3 °F 64% 29.96 in 10.0 mi North 9.2 mph - N/A   Mostly Cloudy
4:15 AM 63.0 °F 51.1 °F 65% 29.96 in 10.0 mi North 9.2 mph - N/A   Mostly Cloudy
4:35 AM 63.0 °F 50.9 °F 65% 29.96 in 10.0 mi North 9.2 mph - N/A   Scattered Clouds
4:55 AM 62.6 °F 50.9 °F 66% 29.97 in 10.0 mi North 6.9 mph - N/A   Clear
5:15 AM 61.9 °F 50.9 °F 67% 29.97 in 10.0 mi North 8.1 mph - N/A   Scattered Clouds
5:35 AM 61.2 °F 51.1 °F 69% 29.97 in 10.0 mi North 9.2 mph - N/A   Scattered Clouds
5:55 AM 60.6 °F 51.3 °F 71% 29.98 in 10.0 mi North 6.9 mph - N/A   Clear
6:15 AM 60.6 °F 51.8 °F 73% 29.98 in 10.0 mi North 8.1 mph - N/A   Mostly Cloudy
6:35 AM 61.2 °F 52.2 °F 72% 29.98 in 10.0 mi North 8.1 mph - N/A   Overcast
6:55 AM 61.9 °F 52.7 °F 72% 29.99 in 10.0 mi North 8.1 mph - N/A   Mostly Cloudy
7:15 AM 62.8 °F 52.7 °F 70% 30.00 in 10.0 mi North 8.1 mph - N/A   Scattered Clouds
7:35 AM 62.6 °F 53.1 °F 71% 30.00 in 10.0 mi North 10.4 mph - N/A   Clear
7:55 AM 64.8 °F 53.6 °F 67% 30.01 in 10.0 mi North 10.4 mph 17.3 mph N/A   Clear
8:15 AM 65.5 °F 54.1 °F 67% 30.01 in 10.0 mi North 10.4 mph - N/A   Clear
8:35 AM 66.2 °F 54.1 °F 65% 30.02 in 10.0 mi North 10.4 mph - N/A   Clear
8:55 AM 67.3 °F 54.5 °F 63% 30.02 in 10.0 mi North 12.7 mph - N/A   Clear
9:15 AM 67.5 °F 54.9 °F 64% 30.02 in 10.0 mi North 9.2 mph - N/A   Clear
9:35 AM 68.0 °F 54.9 °F 63% 30.02 in 10.0 mi North 12.7 mph - N/A   Clear
9:55 AM 69.1 °F 55.2 °F 61% 30.02 in 10.0 mi North 10.4 mph 18.4 mph N/A   Clear
10:15 AM 71.1 °F 56.5 °F 60% 30.02 in 10.0 mi North 11.5 mph 18.4 mph N/A   Clear
10:35 AM 72.3 °F 55.4 °F 55% 30.02 in 10.0 mi North 12.7 mph - N/A   Clear
10:55 AM 73.4 °F 55.2 °F 53% 30.02 in 10.0 mi North 13.8 mph - N/A   Clear
11:15 AM 73.4 °F 54.7 °F 52% 30.01 in 10.0 mi North 17.3 mph 21.9 mph N/A   Clear
11:35 AM 74.3 °F 53.4 °F 48% 30.01 in 10.0 mi North 16.1 mph 21.9 mph N/A   Clear
11:55 AM 75.4 °F 54.1 °F 48% 30.01 in 10.0 mi NNE 12.7 mph 25.3 mph N/A   Clear
12:15 PM 75.4 °F 52.9 °F 45% 30.01 in 10.0 mi North 18.4 mph 23.0 mph N/A   Clear
12:35 PM 76.1 °F 53.2 °F 45% 30.01 in 10.0 mi NNE 15.0 mph - N/A   Clear
12:55 PM 75.2 °F 52.9 °F 46% 30.01 in 10.0 mi North 13.8 mph 20.7 mph N/A   Clear
1:15 PM 76.8 °F 54.3 °F 46% 30.01 in 10.0 mi North 13.8 mph 20.7 mph N/A   Clear
1:35 PM 76.5 °F 52.3 °F 43% 30.00 in 10.0 mi North 16.1 mph 23.0 mph N/A   Clear
1:55 PM 77.2 °F 52.0 °F 41% 30.01 in 10.0 mi North 13.8 mph 23.0 mph N/A   Clear
2:15 PM 77.5 °F 51.3 °F 40% 30.00 in 10.0 mi North 16.1 mph 21.9 mph N/A   Clear
2:35 PM 77.9 °F 52.3 °F 41% 30.00 in 10.0 mi North 17.3 mph 20.7 mph N/A   Clear
2:55 PM 77.4 °F 51.3 °F 40% 30.00 in 10.0 mi North 13.8 mph 24.2 mph N/A   Clear
3:15 PM 77.9 °F 51.8 °F 40% 30.00 in 10.0 mi North 16.1 mph 21.9 mph N/A   Clear
3:35 PM 78.1 °F 51.4 °F 39% 29.99 in 10.0 mi North 15.0 mph 25.3 mph N/A   Clear
3:55 PM 77.9 °F 52.9 °F 42% 29.99 in 10.0 mi NNE 13.8 mph 20.7 mph N/A   Clear
4:15 PM 78.3 °F 52.3 °F 40% 29.99 in 10.0 mi North 15.0 mph 21.9 mph N/A   Clear
4:35 PM 78.1 °F 52.5 °F 41% 29.99 in 10.0 mi North 16.1 mph 21.9 mph N/A   Clear
4:55 PM 77.9 °F 52.3 °F 41% 29.99 in 10.0 mi North 16.1 mph 19.6 mph N/A   Clear
5:15 PM 77.0 °F 53.1 °F 43% 29.99 in 10.0 mi North 15.0 mph 20.7 mph N/A   Clear
5:35 PM 77.2 °F 54.3 °F 45% 29.99 in 10.0 mi North 10.4 mph - N/A   Clear
5:55 PM 77.0 °F 53.8 °F 44% 29.99 in 10.0 mi NNE 10.4 mph - N/A   Clear
6:15 PM 76.8 °F 53.2 °F 44% 29.99 in 10.0 mi North 15.0 mph 19.6 mph N/A   Clear
6:35 PM 76.1 °F 51.6 °F 42% 30.00 in 10.0 mi NNE 15.0 mph 20.7 mph N/A   Clear
6:55 PM 75.4 °F 52.0 °F 44% 30.00 in 10.0 mi North 11.5 mph - N/A   Clear
7:15 PM 74.8 °F 50.5 °F 42% 30.00 in 10.0 mi North 12.7 mph 21.9 mph N/A   Clear
7:35 PM 73.8 °F 50.4 °F 44% 30.01 in 10.0 mi North 11.5 mph 16.1 mph N/A   Clear
7:55 PM 73.4 °F 46.9 °F 39% 30.01 in 10.0 mi North 12.7 mph 21.9 mph N/A   Clear
8:15 PM 72.5 °F 46.9 °F 40% 30.02 in 10.0 mi North 13.8 mph 19.6 mph N/A   Clear
8:35 PM 72.1 °F 45.7 °F 39% 30.02 in 10.0 mi North 12.7 mph - N/A   Clear
8:55 PM 71.4 °F 46.4 °F 41% 30.03 in 10.0 mi North 10.4 mph - N/A   Clear
9:15 PM 70.7 °F 46.9 °F 43% 30.03 in 10.0 mi North 10.4 mph - N/A   Mostly Cloudy
9:35 PM 70.3 °F 47.1 °F 43% 30.03 in 10.0 mi North 10.4 mph 16.1 mph N/A   Scattered Clouds
9:55 PM 69.3 °F 48.2 °F 47% 30.04 in 10.0 mi North 9.2 mph - N/A   Scattered Clouds
10:15 PM 69.1 °F 48.7 °F 48% 30.03 in 10.0 mi North 8.1 mph - N/A   Mostly Cloudy
10:35 PM 68.9 °F 49.5 °F 50% 30.03 in 10.0 mi North 8.1 mph - N/A   Mostly Cloudy
10:55 PM 68.2 °F 49.8 °F 52% 30.03 in 10.0 mi North 8.1 mph - N/A   Scattered Clouds
11:15 PM 67.5 °F 50.2 °F 54% 30.03 in 10.0 mi North 8.1 mph - N/A   Scattered Clouds
11:35 PM 66.2 °F 50.7 °F 57% 30.03 in 10.0 mi North 6.9 mph - N/A   Scattered Clouds
11:55 PM 65.8 °F 50.9 °F 58% 30.03 in 10.0 mi North 8.1 mph - N/A   Clear